Wind_Speed
10 10 10 12 13 13 14 15 16 18 19 22 25 25 29 33 36 33 32 32 37 27
12 11 12 12 12 11 10 12 13 13 15 17 20 23 21 27 32 32 32 32 33 30
12 11 11 11 12 12 13 14 15 15 13 13 13 19 18 21 24 26 29 28 27 25
12 12 11 10 10 12 10 12 13 14 15 14 11 13 16 15 17 19 18 18 17 19
12 11 11 13 13 11 11 9 10 11 9 9 10 11 9 8 9 10 10 9 11 12
12 12 13 12 11 11 10 9 9 8 10 10 10 9 6 3 1 2 5 4 4 4
12 12 11 10 10 10 11 10 9 10 10 10 10 9 7 4 4 5 7 7 7 8
9 7 9 11 11 13 17 17 16 17 17 16 15 12 8 9 8 13 13 15 12 12
7 8 11 10 12 15 18 19 20 20 21 22 20 18 15 14 16 17 16 17 14 19
8 10 12 13 15 17 20 20 22 22 22 22 18 15 15 15 17 16 15 13 12 12
11 14 14 15 16 18 19 20 20 18 18 21 18 17 16 15 14 13 11 11 12 11
13 14 14 16 15 15 17 18 17 17 18 20 17 14 13 13 13 11 10 8 8 5
13 14 14 14 14 14 15 16 16 17 15 13 14 12 12 8 7 8 6 5 5 5
11 12 12 11 12 13 12 12 12 13 10 10 10 10 11 10 7 7 6 5 5 3
Wind_Direction
341 346 345 340 334 326 320 311 307 294 290 271 270 267 262 259 258 255 247 232 229 234
1 2 353 350 341 336 322 322 310 310 318 291 271 274 266 263 261 258 250 242 236 236
10 3 354 354 2 348 324 316 309 308 315 334 299 284 283 277 269 254 252 244 237 234
10 5 6 6 4 1 341 346 349 341 325 318 302 292 286 279 275 267 250 242 230 224
19 5 7 7 1 351 12 9 7 347 344 334 320 309 303 287 263 241 226 220 215 206
21 17 15 12 359 9 15 18 9 16 15 16 14 9 357 322 295 171 178 179 211 210
25 24 14 13 19 24 42 42 43 43 37 30 30 36 34 48 113 114 119 132 146 135
33 26 39 41 55 60 64 63 64 66 62 58 52 49 72 89 87 104 104 105 110 112
46 48 58 60 72 80 83 84 82 81 80 73 69 71 76 95 100 100 103 101 105 98
66 68 73 84 86 87 85 86 84 81 79 77 75 75 83 92 95 95 93 94 86 91
78 86 93 93 92 92 92 88 85 85 84 82 72 73 75 79 85 85 80 76 73 72
94 97 100 99 97 94 90 87 84 80 78 76 68 64 65 64 68 72 72 62 64 70
109 109 109 107 105 94 88 83 81 78 70 70 71 57 56 53 63 66 70 64 58 46
108 113 113 105 92 90 88 89 88 90 84 72 52 52 48 46 46 38 23 22 16 14
Height
778 778 777 776 775 774 772 772 771 772 771 771 772 772 774 774 773 774 774 774 776 778
779 778 777 776 775 772 770 768 767 768 767 766 767 767 767 768 768 769 769 768 770 774
780 778 778 776 774 772 769 767 765 765 765 765 765 765 765 765 765 764 764 764 766 768
780 779 777 775 773 772 770 767 765 765 764 763 763 763 763 762 761 763 762 763 764 764
779 780 777 776 775 773 772 768 765 765 763 762 761 761 761 760 759 760 761 763 764 764
780 780 777 777 777 774 771 768 767 765 764 762 761 761 760 760 760 760 760 762 766 767
782 780 780 778 776 775 770 768 768 765 765 764 763 762 763 763 763 761 761 763 767 767
785 785 782 780 779 777 773 771 770 767 767 768 767 766 765 766 769 763 768 768 771 769
788 786 782 782 781 779 776 774 772 773 771 770 773 772 771 770 770 771 774 773 777 770
788 785 784 785 783 783 779 778 778 777 777 778 778 777 775 775 775 777 778 778 778 777
788 788 788 787 788 785 783 782 782 783 782 782 782 782 781 781 780 781 782 782 780 780
790 791 792 791 790 789 787 787 787 787 786 786 786 786 786 785 785 786 786 785 784 786
793 793 794 794 793 792 791 791 791 791 791 790 790 790 789 789 789 788 789 788 788 788
795 795 796 796 795 795 795 794 794 794 794 793 792 792 791 791 790 790 790 789 788 787